FLOCK 2K-48 (42855 NORAD) Tracking and Keplerian Element Data

This shows tracking and keplerian element data for the satellite.

Feedback or suggestion? Click here.




ElementValue
Catalog42855
NameFLOCK 2K-48
Epoch Orbit15214
Epoch Day91.66630228
Epoch Year2020
RAAN324.0383
Inclination96.9032
Eccentricity0.0006779
Argument of Perigee253.5371
Mean Anonmoly106.5133
Mean Motion15.41879512
Decay Rate8.841E-05
L11 42855U 17042AG 20091.66630228 .00008841 00000-0 20994-3 0 9991
L22 42855 96.9032 324.0383 0006779 253.5371 106.5133 15.41879512152148

Live tracking and technical data element details for FLOCK 2K-48 (NORAD 42855). FLOCK 2K-48 can be tracked NOW for your location showing map with azimuth and elevation plus other details from your city location.

Track the satellite on the map from your city or location and see movement details for azimuth, elevation, latitude, longitude, range, height, and movement on the map or in text.







IsCatalogInMostPopularTable: catalog: 42855, numindb: 360
Update: records affected: 1



GetName: 42855 FLOCK 2K-48

Hit Count: updated at: Thu, 02 Apr 2020 04:09:21 GMT